Voltar ao catálogo

CZ-3 DEB

LostHEO
NORAD 29446·DEBRIS·🇨🇳 China

Lançado Apr 8, 1984 de Xichang Satellite Launch Center

Loading…

Próximas Passagens (próximas 24 horas)

TLE

ObsoletoSource: Space-Track

Época: Jul 21, 2026, 11:24 UTC

1 29446U 84035E   26202.47559541  .00000136  00000-0  14689-3 0  9998
2 29446  30.3334 170.7533 6837881 244.6747  32.3099  2.76785884  6809

Acompanhe CZ-3 DEB em tempo real com AllMySat

Download on the App Store